Location: Avully
(45.9633°N, 6.0228°E)
Time: 13:26:47
(UTC+00:00)

SJ 16-02 - Pass Details

Date: 23 May 2024
Orbit: 594 x 606 km, 75.0° (Epoch: 16 June)

Event Time Altitude Azimuth Distance (km) Brightness Sun altitude
Exits shadow 03:17:16 - 247° (WSW) 2,187 3.5 -6.2°
Reaches altitude 10° 03:18:06 10° 254° (WSW) 1,930 3.3 -6.1°
Maximum altitude 03:21:20 20° 303° (WNW) 1,384 3.0 -5.7°
Drops below altitude 10° 03:24:34 10° 352° (N) 1,939 4.3 -5.2°
Sets 03:27:18 0° 9° (N) 2,846 5.5 -4.9°
